Regional Weather Roundup
Issued by NWS

Home | Current Version | Previous Version | Graphics & Text | Print | Product List | Glossary On
Versions: 1 2 3 4 5 6 7 8 9 10 11 12 13 14 15 16 17 18 19 20 21 22 23 24 25 26 27 28 29 30 31 32 33 34 35 36 37 38 39 40 41 42 43 44 45 46 47 48 49 50
000
ASUS43 KLMK 290302
RWRKY
KENTUCKY REGIONAL WEATHER ROUNDUP
NATIONAL WEATHER SERVICE LOUISVILLE KY
1100 PM EDT FRI APR 28 2017

NOTE "FAIR" INDICATES FEW OR NO CLOUDS BELOW 12,000 FEET
WITH NO SIGNIFICANT WEATHER AND/OR OBSTRUCTIONS TO VISIBILITY.

KYZ001>023-026-027-061>063-070>075-290400-
WESTERN AND SOUTH CENTRAL KENTUCKY

CITY           SKY/WX    TMP DP  RH WIND       PRES   REMARKS
PADUCAH        PTCLDY    75  69  81 S5        29.79F
HENDERSON      CLOUDY    72  69  90 NW5       29.82R THUNDER
OWENSBORO      CLOUDY    73  68  84 S12       29.82R
HOPKINSVILLE   NOT AVBL
BOWLING GREEN  CLOUDY    79  68  69 S10       29.89R
GLASGOW        NOT AVBL
$$

KYZ024-025-028>034-038-045-046-053-290400-
NORTH CENTRAL KENTUCKY

CITY           SKY/WX    TMP DP  RH WIND       PRES   REMARKS
LOUISVILLE/SDF CLOUDY    76  66  71 S7        29.87R
LOUISVILLE/LOU CLOUDY    76  67  73 S6        29.88R
FORT KNOX      CLOUDY    73  66  78 S8        29.86F
$$

KYZ035>037-039>044-047>052-055>060-089>105-290400-
NORTHEAST KENTUCKY

CITY           SKY/WX    TMP DP  RH WIND       PRES   REMARKS
LEXINGTON      CLOUDY    75  62  64 S10       29.93R
COVINGTON      CLOUDY    63  63 100 CALM      29.94R
FRANKFORT      MOCLDY    75  61  61 S9        29.89R
$$

KYZ054-064>069-076>088-106>120-290400-
SOUTHEAST KENTUCKY

CITY           SKY/WX    TMP DP  RH WIND       PRES   REMARKS
JACKSON        PTCLDY    73  61  65 CALM      29.98S
LONDON         PTCLDY    75  61  61 S5        29.97F
SOMERSET       CLEAR     75  63  64 SW8       29.97S
MIDDLESBORO    CLEAR     67  65  96 CALM      30.04R
MONTICELLO     CLEAR     77  66  68 SE9G17    29.97S
$$




USA.gov is the U.S. government's official web portal to all federal, state and local government web resources and services.